Location: Prague
(50.0830°N, 14.4670°E)
Time: 09:34:51
(UTC+01:00)

STARLINK-1617 - Pass Details

Date: 18 January 2021
Orbit: 545 x 549 km, 53.1° (Epoch: 25 February)

Event Time Altitude Azimuth Distance (km) Brightness Sun altitude
Exits shadow 04:31:30 11° 140° (SE) 1,765 6.5 -31.7°
Maximum altitude 04:32:15 11° 129° (SE) 1,738 6.6 -31.6°
Drops below altitude 10° 04:33:30 10° 112° (ESE) 1,815 7.0 -31.4°
Sets 04:37:15 0° 77° (ENE) 2,715 8.3 -30.8°
